Hlavní strana
METAR-TAF:

METAR-TAF

Letiště :

Effingham County Memorial Airport

Effingham, Illinois, Spojené státy americké

zeměpisná šířka: 39-04-14N, zeměpisná délka: 088-32-00W, výška: 179 m

Aktuální stav počasí

Zpráva byla vytvořena před 23 minutami, v 19:35 UTC
Západoseverozápadní vítr 11 kt
Teplota 4°C
Vlhkost vzduchu 32%
Tlak 1024 hPa
Viditelnost: 16.1 km
Oblačno až skoro zataženo ve výšce 1900 ft

METAR: K1H2 181935Z AUTO 30011KT 10SM BKN019 04/M11 A3023 RMK AO2 T00351115

Čas: 13:58 (19:58 UTC)


TAF: chybějící

Stav a předpovědi počasí z více než 4 000 letišť (zprávy METAR a TAF).

Červené a žluté tečky na mapě představují dostupné meteorologické stanice.

Když kurzor umístíte na tečku, zobrazí se název stanice.

Pak kliknutím zobrazíte stav a předpověď počasí.

Chcete-li změnit mapu, kliknutím na zelené tlačítko se znaménkem +mapu přiblížíte, kliknutím na zelené tlačítko se znaménkem – mapu oddálíte a kliknutím na zelené šipky přejdete na sousední mapy.


METAR-TAF: